#timestamp,LO_Frequency,Hit,StdDev 
1655892015.0,286046998.2,N
1655892015.9,286046998.2,N
1655892035.8,286046998.3,N
1655892055.6,286046998.6,N
1655892075.4,286046998.5,N
1655892095.3,286046999.6,N
1655892115.1,286046999.1,N
1655892135.9,286046996.5,N
1655892155.7,286046996.5,N
1655892175.5,286046999.3,N
1655892195.4,286046997.1,N
1655892215.2,286046997.3,N
1655892235.0,286046996.7,N
1655892266.0,286046998.0,E
1655892275.9,286046997.9,N
1655892295.7,286046999.1,P
1655892315.6,286046996.7,P
1655892335.4,286046996.7,Y
1655892355.2,286047000.9,P
1655892375.1,286047001.2,N
1655892376.0,286047001.2,N
1655892395.8,286047000.8,N
1655892415.7,286046998.4,N
1655892435.5,286046999.1,N
1655892455.3,286046996.9,N
1655892475.2,286046996.9,N
1655892495.0,286046997.8,N
1655892495.9,286046997.8,N
1655892515.7,286046998.9,N
1655892535.6,286047001.2,N
1655892555.4,286046999.5,N
1655892575.3,286046996.8,N
1655892595.1,286046997.5,N
1655892596.0,286046997.5,N
1655892615.8,286046996.8,N
1655892635.7,286046997.9,N
1655892655.5,286046995.3,N
1655892675.3,286046996.0,N
1655892695.2,286046996.3,N
1655892715.0,286046996.0,N
1655892715.9,286046996.0,N
1655892735.8,286046996.3,N
1655892755.6,286046993.9,Y
1655892775.4,286046995.7,P
1655892795.3,286046995.6,P
1655892815.1,286046996.2,P
1655892835.8,286046995.9,Y
1655892855.7,286046998.8,P
1655892875.5,286046998.6,N
1655892895.4,286046996.5,P
1655892915.2,286046999.0,N
1655892935.0,286046996.6,N
1655892935.9,286046996.6,N
1655892955.8,286046998.9,N
1655892975.6,286046998.1,N
1655892995.4,286046999.1,N
1655893015.3,286046999.5,N
1655893035.1,286046998.9,N
1655893055.9,286046998.5,N
1655893075.7,286046999.0,N
1655893095.5,286046998.6,N
1655893115.4,286046998.9,N
1655893135.2,286046999.6,N
1655893155.0,286046999.2,N
1655893155.9,286046999.2,N
1655893175.8,286046996.6,Y
1655893195.6,286046998.6,P
1655893215.5,286046998.6,P
1655893235.3,286046998.4,P
1655893255.1,286046998.9,Y
1655893275.9,286047000.0,P
1655893295.7,286046998.5,N
1655893315.5,286046998.9,N
1655893335.4,286046998.3,N
1655893355.2,286046998.6,N
1655893375.1,286047000.8,N
1655893376.0,286047000.8,N
1655893395.8,286046998.9,N
1655893415.6,286046999.0,N
1655893435.5,286046999.2,N
1655893455.3,286046999.0,N
1655893475.1,286046999.0,N
1655893495.9,286046998.3,N
1655893515.7,286046999.0,N
1655893535.6,286046998.5,N
1655893555.4,286047000.3,N
1655893575.2,286047001.1,N
1655893595.1,286047000.8,N
1655893596.0,286047000.8,N
1655893615.8,286046998.6,N
1655893635.6,286046998.8,N
1655893655.5,286046999.0,N
1655893675.3,286046999.0,N
1655893695.1,286046999.6,N
1655893715.9,286046996.7,Y
1655893735.7,286046998.8,P
1655893755.6,286046999.0,P
1655893775.4,286046998.2,P
1655893795.2,286047001.2,N
1655893815.1,286046999.0,N
1655893816.0,286046999.0,N
1655893835.8,286046999.1,N
1655893855.7,286046997.7,N
1655893875.5,286046997.0,Y
1655893895.3,286046996.6,P
1655893915.2,286046999.5,N
1655893935.9,286046997.0,N
1655893955.7,286046996.9,N
1655893975.6,286046997.0,N
1655893995.4,286046997.7,N
1655894015.3,286046997.0,N
1655894035.1,286046997.2,N
1655894036.0,286046997.2,N
1655894055.8,286046995.0,Y
1655894075.7,286046998.8,P
1655894095.5,286046998.3,N
1655894115.3,286047000.8,N
1655894135.2,286047000.8,N
1655894155.0,286046998.6,N
1655894155.9,286046998.6,N
1655894175.8,286046998.4,N
1655894195.6,286047001.1,N
1655894215.4,286046999.1,N
1655894235.3,286046999.1,N
1655894255.1,286046999.3,N
1655894275.8,286046998.9,N
1655894295.7,286046999.0,N
1655894315.5,286046998.2,N
1655894335.4,286046999.6,N
1655894355.2,286046997.2,N
1655894375.0,286046997.7,N
1655894375.9,286046997.7,N
1655894395.8,286046997.2,N
1655894415.6,286046995.1,Y
1655894435.5,286046997.4,P
1655894455.3,286046997.5,P
1655894475.1,286046997.4,P
1655894495.9,286046997.1,Y
1655894515.7,286046998.7,P
1655894535.5,286046998.8,N
1655894555.4,286046998.5,P
1655894575.2,286046998.6,Y
1655894595.1,286047002.8,P
1655894596.0,286047002.8,N
1655894615.8,286047001.9,N
1655894635.6,286047002.6,N
1655894655.5,286047000.1,N
1655894675.3,286047000.5,N
1655894695.2,286046998.2,N
1655894715.9,286047000.5,N
1655894735.7,286047001.0,N
1655894755.6,286047000.1,N
1655894775.4,286047000.3,N
1655894795.3,286047000.4,N
1655894815.1,286047001.8,N
1655894816.0,286047001.8,N
1655894835.8,286047002.2,N
1655894855.7,286047001.9,N
1655894875.5,286047002.5,N
1655894895.3,286047002.8,N
1655894915.2,286047002.6,N
1655894935.0,286047001.9,N
1655894935.9,286047001.9,N
1655894955.8,286047004.2,Y
1655894975.6,286047002.3,P
1655894995.4,286047001.9,P
1655895015.3,286047004.4,P
1655895035.1,286047002.0,N
1655895055.8,286047002.3,N
1655895075.7,286047002.2,N
1655895095.5,286047002.5,N
1655895115.4,286047002.3,N
1655895135.2,286047002.3,N
1655895155.0,286047002.4,Y
1655895155.9,286047002.4,P
1655895175.8,286046998.5,P
1655895195.6,286047001.2,N
1655895215.4,286046998.5,N
1655895235.3,286046998.1,N
1655895255.1,286047000.8,N
1655895275.9,286047001.1,N
1655895295.7,286046999.8,N
1655895315.5,286046999.7,N
1655895335.4,286047002.8,N
1655895355.2,286047002.3,N
1655895375.0,286047001.7,N
1655895375.9,286047001.7,N
1655895395.8,286047001.6,N
1655895415.6,286047002.1,N
1655895435.5,286047000.1,N
1655895455.3,286046999.7,N
1655895475.1,286046999.8,N
1655895495.9,286047000.1,N
1655895515.7,286047002.4,N
1655895535.5,286047002.2,N
1655895555.4,286047001.6,N
1655895575.2,286047001.7,N
1655895595.1,286047001.8,N
1655895596.0,286047001.8,N
